Location: Kouchibouguac National Park
(46.8081°N, 64.9088°W)
Time: 02:28:58
(UTC-03:00)

Amateur Radio Satellites - All Passes

Search period start: 30 July 2016 01:58
Search period end: 31 July 2016 01:58
Location: Kouchibouguac National Park, 46.8081°N, 64.9088°W

Satellite Date Start Highest point End Downlink Frequencies (MHz)
Time Altitude Azimuth
BEESAT 3 30 Jul 02:01:58 02:05:27 28° 42° (NE) 02:08:55 437.485
SPROUT 30 Jul 02:07:27 02:09:43 14° 271° (W) 02:12:00 437.525
GONETS M04 30 Jul 02:13:10 02:21:42 50° 72° (ENE) 02:30:13
BEESAT 2 30 Jul 02:14:14 02:17:30 23° 39° (NE) 02:20:45 435.950
PCSat 30 Jul 02:14:28 02:17:56 17° 31° (NNE) 02:21:24 145.827
ISS 30 Jul 02:20:18 02:23:35 80° 25° (NNE) 02:26:50 145.825
JAS-2 30 Jul 02:30:54 02:36:06 58° 289° (WNW) 02:41:44 435.910
NANOSAT C BR1 30 Jul 02:37:44 02:39:53 14° 301° (WNW) 02:42:02 145.865
SWISSCUBE 30 Jul 02:39:10 02:43:57 81° 75° (ENE) 02:48:46 437.505
DUCHIFAT 1 30 Jul 02:40:31 02:42:38 14° 301° (WNW) 02:44:46 145.980
BUGSAT 1 30 Jul 02:41:19 02:44:48 25° 295° (WNW) 02:48:16 437.445
Cosmos 2499 30 Jul 02:45:57 02:53:39 54° 74° (ENE) 03:00:47 435.465 / 435.565
TISAT 1 30 Jul 02:50:55 02:53:50 18° 268° (W) 02:56:44 437.305
Oscar 19 30 Jul 02:51:31 02:56:42 71° 103° (ESE) 03:01:53 437.125/150
ITAMSAT 1 30 Jul 02:55:33 02:57:38 12° 87° (E) 02:59:43 435.822/435.867
Gurwin Techsat 1B 30 Jul 02:56:48 03:01:45 38° 97° (E) 03:06:40 435.225
BEESAT 30 Jul 03:00:14 03:05:00 72° 257° (WSW) 03:09:48 436.000
MOZHAYETS 4 30 Jul 03:15:00 03:18:42 24° 64° (ENE) 03:22:25
ITUPSAT 1 30 Jul 03:25:44 03:30:18 43° 261° (W) 03:34:53 437.325
DANDE 30 Jul 03:35:34 03:37:50 13° 92° (E) 03:39:52 436.750
BEESAT 3 30 Jul 03:39:32 03:43:12 37° 241° (WSW) 03:46:51 437.485
BEESAT 2 30 Jul 03:51:41 03:55:35 51° 238° (WSW) 03:59:27 435.950
KKS-1 30 Jul 03:54:07 03:58:25 52° 71° (ENE) 04:02:47 437.445
PCSat 30 Jul 03:57:02 04:02:28 62° 54° (NE) 04:07:49 145.827
ISS 30 Jul 03:57:19 03:59:41 19° 223° (SW) 04:02:03 145.825
GONETS M04 30 Jul 04:10:20 04:18:23 42° 274° (W) 04:26:27
SWISSCUBE 30 Jul 04:20:09 04:22:21 13° 272° (W) 04:24:34 437.505
STARS 30 Jul 04:24:16 04:28:33 54° 71° (ENE) 04:32:54 437.465
CUSAT 1 30 Jul 04:24:33 04:28:09 65° 281° (W) 04:31:05 437.405
Oscar 19 30 Jul 04:31:57 04:35:30 19° 301° (WNW) 04:39:02 437.125/150
ITAMSAT 1 30 Jul 04:32:39 04:37:53 88° 105° (ESE) 04:43:04 435.822/435.867
Gurwin Techsat 1B 30 Jul 04:36:53 04:41:38 34° 295° (WNW) 04:46:21 435.225
Cosmos 2499 30 Jul 04:39:40 04:46:21 33° 277° (W) 04:52:39 435.465 / 435.565
AIST 2 30 Jul 04:40:34 04:44:24 33° 44° (NE) 04:48:12 435.215
CUBESAT XI-V 30 Jul 04:42:46 04:46:29 24° 64° (ENE) 04:50:11 437.345
AO-7 30 Jul 04:44:15 04:52:19 49° 101° (E) 05:00:17 29.400- 29.500
RS-15 30 Jul 04:46:29 04:49:36 11° 90° (E) 04:52:45 29.354- 29.394
MOZHAYETS 4 30 Jul 04:51:15 04:55:39 42° 262° (W) 05:00:04
O/OREOS (USA 219) 30 Jul 05:07:54 05:11:22 21° 50° (NE) 05:14:51 437.305
HORYU 2 30 Jul 05:07:56 05:09:50 12° 88° (E) 05:11:45 437.375
DANDE 30 Jul 05:15:35 05:20:29 57° 282° (WNW) 05:24:11 436.750
KKS-1 30 Jul 05:32:16 05:35:18 18° 269° (W) 05:38:23 437.445
PCSat 30 Jul 05:41:14 05:45:24 23° 252° (WSW) 05:49:33 145.827
STRAND 1 30 Jul 05:53:09 05:55:03 12° 53° (NE) 05:56:56 437.568
STARS 30 Jul 06:02:22 06:05:15 17° 269° (W) 06:08:10 437.465
ITAMSAT 1 30 Jul 06:13:37 06:16:39 16° 304° (NW) 06:19:40 435.822/435.867
Cubesat XI-IV 30 Jul 06:14:09 06:15:49 11° 86° (E) 06:17:28 437.490
AIST 2 30 Jul 06:19:06 06:22:51 33° 243° (WSW) 06:26:36 435.215
CUBESAT XI-V 30 Jul 06:19:17 06:23:39 42° 262° (W) 06:28:02 437.345
CUTE-I 30 Jul 06:35:09 06:38:49 18° 90° (E) 06:42:26 437.470
AO-7 30 Jul 06:37:14 06:45:03 46° 301° (WNW) 06:52:49 29.400- 29.500
LilacSat-2 30 Jul 06:41:08 06:43:35 16° 91° (E) 06:46:01 437.200
HORYU 2 30 Jul 06:42:27 06:46:57 76° 286° (WNW) 06:51:24 437.375
NOAA 15 30 Jul 06:44:08 06:48:38 28° 95° (E) 06:53:08 137.62
O/OREOS (USA 219) 30 Jul 06:46:40 06:51:07 55° 250° (WSW) 06:55:34 437.305
RS-15 30 Jul 06:47:53 06:58:52 55° 113° (ESE) 07:10:27 29.354- 29.394
BRITE-PL 30 Jul 06:51:10 06:55:51 44° 98° (E) 07:00:52 437.365/2234.400
SO-50 30 Jul 07:09:23 07:12:35 18° 111° (ESE) 07:15:46 436.795
DOVE 4 30 Jul 07:14:22 07:18:02 19° 90° (E) 07:21:46 437.250
STRAND 1 30 Jul 07:28:12 07:33:19 71° 72° (ENE) 07:38:27 437.568
GOMX 1 30 Jul 07:36:43 07:41:46 57° 100° (E) 07:47:03 467.674
NOAA 18 30 Jul 07:37:33 07:43:03 59° 102° (ESE) 07:48:29 137.9125
Cosmos 2491 30 Jul 07:42:28 07:49:58 30° 64° (ENE) 07:57:27 435.465 / 435.565
PRISM 30 Jul 07:48:22 07:50:43 15° 61° (ENE) 07:53:05 437.425
Cubesat XI-IV 30 Jul 07:51:22 07:56:45 80° 104° (ESE) 08:02:05 437.490
CUTE-I 30 Jul 08:14:03 08:19:22 68° 288° (WNW) 08:24:38 437.470
LilacSat-2 30 Jul 08:14:26 08:18:08 44° 288° (WNW) 08:21:47 437.200
HORYU 2 30 Jul 08:21:47 08:22:42 11° 305° (NW) 08:23:37 437.375
NOAA 15 30 Jul 08:23:36 08:28:35 44° 292° (WNW) 08:33:33 137.62
BRITE-PL 30 Jul 08:30:07 08:34:10 27° 294° (WNW) 08:38:29 437.365/2234.400
AO-7 30 Jul 08:32:02 08:35:45 14° 325° (NW) 08:39:29 29.400- 29.500
HO-68 30 Jul 08:33:29 08:39:46 31° 94° (E) 08:45:59 435.675
CINEMA 3 30 Jul 08:38:48 08:43:25 35° 95° (E) 08:47:56 145.822/145.860
AAUSAT CUBESAT 2 30 Jul 08:43:38 08:44:33 11° 88° (E) 08:45:27 437.432
SO-50 30 Jul 08:47:40 08:52:33 74° 309° (NW) 08:57:24 436.795
DOVE 4 30 Jul 08:50:59 08:56:08 65° 287° (WNW) 09:01:22 437.250
UWE-3 30 Jul 08:57:07 08:58:04 11° 85° (E) 08:59:02 435.000/436.395/437.385
RS-15 30 Jul 08:59:55 09:11:24 59° 320° (NW) 09:23:31 29.354- 29.394
CANX-2 30 Jul 09:00:21 09:04:26 46° 99° (E) 09:08:28 2200.000
STRAND 1 30 Jul 09:09:46 09:13:01 17° 270° (W) 09:16:17 437.568
CUTE 1.7 + AOD 2 30 Jul 09:13:04 09:17:13 55° 100° (E) 09:21:20 437.475
YUBILEINY 30 Jul 09:13:36 09:21:22 37° 84° (E) 09:29:10 435.215
GOMX 1 30 Jul 09:15:34 09:19:31 23° 297° (WNW) 09:23:36 467.674
NOAA 18 30 Jul 09:18:55 09:23:19 25° 301° (WNW) 09:27:41 137.9125
PRISM 30 Jul 09:21:35 09:25:36 59° 259° (W) 09:29:38 437.425
CUBEBUG 2 30 Jul 09:23:49 09:27:56 29° 94° (E) 09:31:56 437.445
Oscar 11 30 Jul 09:24:10 09:26:08 13° 88° (E) 09:28:05 145.826/435.025
Cubesat XI-IV 30 Jul 09:32:42 09:36:12 18° 303° (WNW) 09:39:40 437.490
TIGRISAT 30 Jul 09:36:28 09:39:55 21° 62° (ENE) 09:43:24 435.000
Cosmos 2491 30 Jul 09:38:54 09:47:35 71° 267° (W) 09:56:18 435.465 / 435.565
SEEDS 30 Jul 09:46:02 09:50:14 89° 104° (ESE) 09:54:24 437.485
COMPASS 1 30 Jul 09:51:28 09:55:38 72° 103° (ESE) 09:59:44 437.405
UNISAT 6 30 Jul 09:53:14 09:57:18 30° 66° (ENE) 10:01:24 437.425
CUTE-I 30 Jul 09:56:28 09:58:26 12° 308° (NW) 10:00:24 437.470
DELFI C3 30 Jul 10:11:38 10:14:13 17° 91° (E) 10:16:47 145.870
CINEMA 3 30 Jul 10:15:58 10:20:28 34° 294° (WNW) 10:24:55 145.822/145.860
AAUSAT CUBESAT 2 30 Jul 10:16:26 10:20:34 76° 284° (WNW) 10:24:39 437.432
FUNcube-1 30 Jul 10:20:42 10:25:01 45° 98° (E) 10:29:11 145.935
HO-68 30 Jul 10:20:49 10:27:52 59° 294° (WNW) 10:34:53 435.675
ZACube-1 30 Jul 10:23:30 10:27:55 51° 99° (E) 10:32:11 437.345
SO-50 30 Jul 10:30:25 10:33:50 19° 330° (NNW) 10:37:13 436.795
UWE-3 30 Jul 10:30:36 10:35:15 90° 281° (W) 10:39:44 435.000/436.395/437.385
ANTELSAT 30 Jul 10:30:52 10:35:30 66° 73° (ENE) 10:40:12 437.575/2403.000
DOVE 4 30 Jul 10:31:21 10:32:54 11° 305° (NW) 10:34:27 437.250
CANX-2 30 Jul 10:36:58 10:40:00 19° 296° (WNW) 10:43:00 2200.000
Cosmos 2504 30 Jul 10:42:55 10:51:15 47° 88° (E) 10:59:26 435.465 / 435.565
QB50P1 30 Jul 10:45:34 10:48:22 17° 62° (ENE) 10:51:12 145.935-145.965
CUTE 1.7 + AOD 2 30 Jul 10:49:58 10:52:40 17° 298° (WNW) 10:55:21 437.475
POPSAT HIP 1 30 Jul 10:52:03 10:55:07 20° 63° (ENE) 10:58:12 437.405
Oscar 11 30 Jul 10:58:27 11:02:45 69° 286° (WNW) 11:07:02 145.826/435.025
CUBEBUG 2 30 Jul 11:00:18 11:04:35 35° 293° (WNW) 11:08:44 437.445
JAS-2 30 Jul 11:04:37 11:07:21 14° 56° (NE) 11:10:00 435.910
HUMSAT D 30 Jul 11:08:21 11:12:11 34° 97° (E) 11:15:56 437.325/437.525
YUBILEINY 30 Jul 11:09:12 11:17:48 57° 286° (WNW) 11:26:31 435.215
TIGRISAT 30 Jul 11:11:40 11:16:13 54° 260° (W) 11:20:52 435.000
QB50P2 30 Jul 11:12:59 11:16:47 32° 68° (ENE) 11:20:37 145.880/145.840
POLYITAN 1 30 Jul 11:15:35 11:19:25 33° 67° (ENE) 11:23:17 437.675
RS-15 30 Jul 11:16:33 11:27:09 34° 352° (N) 11:38:03 29.354- 29.394
M-CUBED/EXP-1 PRIME 30 Jul 11:21:06 11:25:41 47° 104° (ESE) 11:30:11 437.505
SEEDS 30 Jul 11:24:07 11:25:16 11° 302° (WNW) 11:26:25 437.485
COMPASS 1 30 Jul 11:28:43 11:30:38 13° 300° (WNW) 11:32:33 437.405
UNISAT 6 30 Jul 11:29:40 11:33:55 35° 264° (W) 11:38:15 437.425
Cosmos 2491 30 Jul 11:38:19 11:42:44 15° 288° (WNW) 11:47:09 435.465 / 435.565
AUBIESAT-1 30 Jul 11:44:10 11:48:49 65° 107° (ESE) 11:53:23 437.475
DELFI C3 30 Jul 11:45:32 11:49:18 44° 289° (WNW) 11:53:03 145.870
AISAT 30 Jul 11:53:09 11:54:48 12° 88° (E) 11:56:28 437.250
NANOSAT C BR1 30 Jul 11:54:57 11:59:10 78° 75° (ENE) 12:03:28 145.865
DUCHIFAT 1 30 Jul 11:57:29 12:01:43 78° 75° (ENE) 12:06:00 145.980
FUNcube-1 30 Jul 11:57:33 12:00:57 22° 297° (WNW) 12:04:18 145.935
BUGSAT 1 30 Jul 11:58:00 12:01:46 36° 69° (ENE) 12:05:38 437.445
ZACube-1 30 Jul 12:00:36 12:03:49 20° 298° (WNW) 12:06:59 437.345
UWE-3 30 Jul 12:08:58 12:10:58 13° 303° (WNW) 12:12:57 435.000/436.395/437.385
ANTELSAT 30 Jul 12:09:51 12:12:40 16° 271° (W) 12:15:31 437.575/2403.000
HO-68 30 Jul 12:10:27 12:14:10 15° 315° (NW) 12:17:52 435.675
50 SAT 30 Jul 12:12:05 12:14:15 15° 92° (E) 12:16:24 437.505
QB50P1 30 Jul 12:19:34 12:23:45 55° 260° (W) 12:27:58 145.935-145.965
POPSAT HIP 1 30 Jul 12:26:28 12:30:35 47° 261° (W) 12:34:45 437.405
Oscar 19 30 Jul 12:33:48 12:37:34 21° 60° (ENE) 12:41:22 437.125/150
CUBEBUG 1 30 Jul 12:34:17 12:38:18 33° 96° (E) 12:42:19 437.445
Cosmos 2504 30 Jul 12:36:10 12:44:39 47° 288° (WNW) 12:53:01 435.465 / 435.565
ESTCUBE 1 30 Jul 12:40:26 12:44:52 57° 101° (E) 12:49:18 437.505/2401.250
VELOX 1 30 Jul 12:42:19 12:46:25 34° 97° (E) 12:50:29 145.980
AIST 1 30 Jul 12:42:39 12:45:26 17° 85° (E) 12:48:13
AO-85 30 Jul 12:44:09 12:47:42 18° 111° (ESE) 12:51:12 145.980
HUMSAT D 30 Jul 12:44:14 12:47:39 25° 295° (WNW) 12:51:02 437.325/437.525
Gurwin Techsat 1B 30 Jul 12:44:16 12:46:51 14° 54° (NE) 12:49:27 435.225
JAS-2 30 Jul 12:45:58 12:51:47 83° 73° (ENE) 12:57:07 435.910
QB50P2 30 Jul 12:49:00 12:52:37 27° 265° (W) 12:56:16 145.880/145.840
POLYITAN 1 30 Jul 12:51:38 12:55:15 26° 265° (W) 12:58:54 437.675
M-CUBED/EXP-1 PRIME 30 Jul 12:56:04 12:59:55 26° 302° (WNW) 13:03:46 437.505
YUBILEINY 30 Jul 13:12:51 13:17:01 14° 311° (NW) 13:21:14 435.215
DX 1 30 Jul 13:14:36 13:18:54 53° 101° (E) 13:23:11 434.975-435.025
AUBIESAT-1 30 Jul 13:19:30 13:22:48 19° 304° (NW) 13:26:04 437.475
UKube-1 30 Jul 13:21:32 13:25:47 50° 100° (E) 13:29:59 .
AISAT 30 Jul 13:27:22 13:31:51 80° 286° (WNW) 13:36:19 437.250
RS-15 30 Jul 13:32:25 13:43:51 42° 26° (NNE) 13:55:20 29.354- 29.394
BUGSAT 1 30 Jul 13:34:00 13:37:15 22° 266° (W) 13:40:35 437.445
NANOSAT C BR1 30 Jul 13:34:12 13:35:28 11° 272° (W) 13:36:43 145.865
DUCHIFAT 1 30 Jul 13:36:43 13:37:58 11° 272° (W) 13:39:13 145.980
50 SAT 30 Jul 13:44:41 13:48:05 40° 289° (WNW) 13:51:28 437.505
SPROUT 30 Jul 13:47:51 13:52:13 83° 103° (ESE) 13:56:31 437.525
AO-7 30 Jul 13:56:34 14:02:46 24° 47° (NE) 14:08:58 29.400- 29.500
SO-50 30 Jul 13:57:02 13:58:59 12° 20° (NNE) 14:00:54 436.795
CUBEBUG 1 30 Jul 14:10:45 14:14:29 28° 294° (WNW) 14:18:14 437.445
Oscar 19 30 Jul 14:11:25 14:16:28 61° 259° (WSW) 14:21:34 437.125/150
ITAMSAT 1 30 Jul 14:15:15 14:19:35 28° 63° (ENE) 14:23:58 435.822/435.867
ESTCUBE 1 30 Jul 14:18:13 14:21:17 18° 299° (WNW) 14:24:20 437.505/2401.250
AIST 1 30 Jul 14:18:33 14:22:38 46° 284° (WNW) 14:26:47
VELOX 1 30 Jul 14:19:00 14:22:46 27° 295° (WNW) 14:26:32 145.980
Gurwin Techsat 1B 30 Jul 14:20:39 14:25:57 78° 74° (ENE) 14:31:18 435.225
AO-85 30 Jul 14:22:21 14:27:43 80° 307° (NW) 14:32:48 145.980
TISAT 1 30 Jul 14:30:10 14:34:24 57° 101° (E) 14:38:35 437.305
JAS-2 30 Jul 14:34:28 14:37:29 14° 271° (W) 14:40:24 435.910
SWISSCUBE 30 Jul 14:37:35 14:40:35 16° 90° (E) 14:43:34 437.505
Cosmos 2504 30 Jul 14:38:00 14:40:39 11° 313° (NW) 14:43:18 435.465 / 435.565
DX 1 30 Jul 14:51:41 14:54:43 19° 298° (WNW) 14:57:46 434.975-435.025
CUSAT 1 30 Jul 14:52:29 14:55:34 86° 80° (E) 14:59:27 437.405
BEESAT 30 Jul 14:57:57 15:01:45 23° 93° (E) 15:05:31 436.000
UKube-1 30 Jul 14:58:24 15:01:29 19° 298° (WNW) 15:04:34 .
AISAT 30 Jul 15:06:21 15:07:34 11° 304° (NW) 15:08:46 437.250
GONETS M04 30 Jul 15:17:50 15:26:05 51° 89° (E) 15:34:25
ITUPSAT 1 30 Jul 15:23:04 15:27:33 38° 98° (E) 15:31:58 437.325
Cosmos 2499 30 Jul 15:24:36 15:32:45 43° 87° (E) 15:40:38 435.465 / 435.565
SPROUT 30 Jul 15:25:39 15:27:31 13° 302° (WNW) 15:29:24 437.525
SO-50 30 Jul 15:36:27 15:40:50 37° 43° (NE) 15:45:03 436.795
RS-15 30 Jul 15:45:42 15:58:08 89° 55° (NE) 16:10:27 29.354- 29.394
AO-7 30 Jul 15:46:02 15:54:24 82° 68° (ENE) 16:02:49 29.400- 29.500
DANDE 30 Jul 15:50:02 15:52:39 56° 261° (W) 15:55:35 436.750
ITAMSAT 1 30 Jul 15:53:49 15:58:50 46° 261° (W) 16:03:53 435.822/435.867
Gurwin Techsat 1B 30 Jul 16:03:24 16:06:32 16° 272° (W) 16:09:41 435.225
AO-85 30 Jul 16:05:04 16:08:55 20° 327° (NNW) 16:12:37 145.980
TISAT 1 30 Jul 16:06:53 16:09:37 17° 299° (WNW) 16:12:22 437.305
HORYU 2 30 Jul 16:08:13 16:11:18 18° 61° (ENE) 16:14:23 437.375
SWISSCUBE 30 Jul 16:14:06 16:18:50 64° 287° (WNW) 16:23:31 437.505
PHONESAT 2.4 30 Jul 16:22:42 16:24:13 13° 159° (SSE) 16:25:43 2401.200-2431.200
NOAA 15 30 Jul 16:32:28 16:33:17 10° 51° (NE) 16:34:06 137.62
BEESAT 30 Jul 16:35:12 16:39:44 45° 291° (WNW) 16:44:15 436.000
MOZHAYETS 4 30 Jul 16:43:11 16:47:24 35° 97° (E) 16:51:34
ITUPSAT 1 30 Jul 17:01:11 17:05:14 28° 296° (WNW) 17:09:16 437.325
GONETS M04 30 Jul 17:15:04 17:23:07 41° 291° (WNW) 17:31:18
SO-50 30 Jul 17:17:03 17:21:17 35° 243° (WSW) 17:25:23 436.795
Cosmos 2499 30 Jul 17:17:16 17:25:47 50° 287° (WNW) 17:34:01 435.465 / 435.565
KKS-1 30 Jul 17:18:21 17:22:51 71° 103° (ESE) 17:27:20 437.445
LilacSat-2 30 Jul 17:26:38 17:28:37 14° 62° (ENE) 17:30:37 437.200
NOAA 18 30 Jul 17:27:48 17:32:12 25° 60° (ENE) 17:36:37 137.9125
BEESAT 3 30 Jul 17:33:37 17:36:07 16° 112° (ESE) 17:38:39 437.485
Cubesat XI-IV 30 Jul 17:37:32 17:42:00 27° 62° (ENE) 17:46:28 437.490
AO-7 30 Jul 17:41:32 17:48:04 25° 269° (W) 17:54:39 29.400- 29.500
HORYU 2 30 Jul 17:43:01 17:47:26 57° 258° (WSW) 17:51:54 437.375
STARS 30 Jul 17:46:47 17:51:15 71° 103° (ESE) 17:55:41 437.465
BEESAT 2 30 Jul 17:48:09 17:49:55 13° 110° (ESE) 17:51:42 435.950
PHONESAT 2.4 30 Jul 17:57:33 18:00:07 24° 175° (S) 18:02:41 2401.200-2431.200
RS-15 30 Jul 17:59:18 18:09:11 30° 258° (WSW) 18:18:59 29.354- 29.394
CUTE-I 30 Jul 17:59:18 18:04:17 40° 66° (ENE) 18:09:17 437.470
BRITE-PL 30 Jul 18:05:36 18:09:40 61° 73° (ENE) 18:13:53 437.365/2234.400
NOAA 15 30 Jul 18:06:52 18:12:00 59° 71° (ENE) 18:17:10 137.62
CUBESAT XI-V 30 Jul 18:12:34 18:16:53 38° 97° (E) 18:21:11 437.345
MOZHAYETS 4 30 Jul 18:20:34 18:24:27 28° 295° (WNW) 18:28:18
DOVE 4 30 Jul 18:23:03 18:26:29 22° 62° (ENE) 18:30:05 437.250
PCSat 30 Jul 18:42:05 18:46:46 30° 110° (ESE) 18:51:27 145.827
GOMX 1 30 Jul 18:48:11 18:52:25 76° 74° (ENE) 18:56:54 467.674
KKS-1 30 Jul 18:56:15 18:58:53 16° 301° (WNW) 19:01:31 437.445
LilacSat-2 30 Jul 18:58:37 19:02:28 61° 260° (W) 19:06:20 437.200
HO-68 30 Jul 19:05:24 19:11:37 33° 58° (ENE) 19:17:52 435.675
NOAA 18 30 Jul 19:07:00 19:12:29 59° 258° (WSW) 19:17:59 137.9125
SEEDS 30 Jul 19:08:17 19:09:18 11° 58° (ENE) 19:10:19 437.485
BEESAT 3 30 Jul 19:09:32 19:13:23 56° 310° (NW) 19:17:18 437.485
Cubesat XI-IV 30 Jul 19:16:36 19:21:49 49° 261° (W) 19:27:03 437.490
Cosmos 2499 30 Jul 19:18:14 19:21:17 12° 311° (NW) 19:24:18 435.465 / 435.565
YUBILEINY 30 Jul 19:19:35 19:26:09 22° 58° (ENE) 19:32:39 435.215
BEESAT 2 30 Jul 19:23:14 19:27:11 74° 308° (NW) 19:31:12 435.950
STARS 30 Jul 19:24:31 19:27:04 15° 301° (WNW) 19:29:37 437.465
O/OREOS (USA 219) 30 Jul 19:25:52 19:27:17 11° 97° (E) 19:28:43 437.305
AO-85 30 Jul 19:32:44 19:34:03 11° 17° (NNE) 19:35:20 145.980
PHONESAT 2.4 30 Jul 19:33:44 19:36:07 20° 192° (SSW) 19:38:30 2401.200-2431.200
AAUSAT CUBESAT 2 30 Jul 19:36:42 19:38:17 12° 59° (ENE) 19:39:51 437.432
STRAND 1 30 Jul 19:36:43 19:40:18 19° 91° (E) 19:43:52 437.568
CUTE-I 30 Jul 19:39:39 19:44:24 32° 265° (W) 19:49:12 437.470
CINEMA 3 30 Jul 19:42:56 19:47:16 41° 69° (ENE) 19:51:49 145.822/145.860
BRITE-PL 30 Jul 19:46:44 19:48:42 13° 272° (W) 19:50:42 437.365/2234.400
NOAA 15 30 Jul 19:48:19 19:52:11 21° 268° (W) 19:56:04 137.62
CUBESAT XI-V 30 Jul 19:50:17 19:54:07 27° 295° (WNW) 19:57:58 437.345
CANX-2 30 Jul 19:55:35 19:59:41 47° 71° (ENE) 20:03:48 2200.000
UWE-3 30 Jul 19:56:01 19:58:31 15° 59° (ENE) 20:01:02 435.000/436.395/437.385
DOVE 4 30 Jul 19:59:41 20:03:53 45° 263° (W) 20:08:22 437.250
CUTE 1.7 + AOD 2 30 Jul 20:08:09 20:12:19 56° 73° (ENE) 20:16:30 437.475
AIST 2 30 Jul 20:19:21 20:22:39 24° 115° (ESE) 20:26:00 435.215
Oscar 11 30 Jul 20:21:38 20:24:15 16° 61° (ENE) 20:26:53 145.826/435.025
CUBEBUG 2 30 Jul 20:24:14 20:28:27 35° 67° (ENE) 20:32:45 437.445
PCSat 30 Jul 20:24:42 20:29:56 49° 310° (NW) 20:35:14 145.827
GOMX 1 30 Jul 20:29:51 20:31:13 11° 274° (W) 20:32:36 467.674
Cosmos 2504 30 Jul 20:33:10 20:38:48 20° 56° (NE) 20:44:09 435.465 / 435.565
ISS 30 Jul 20:37:52 20:40:41 27° 141° (SE) 20:43:30 145.825
M-CUBED/EXP-1 PRIME 30 Jul 20:38:40 20:40:20 12° 50° (NE) 20:42:02 437.505
SEEDS 30 Jul 20:40:05 20:44:20 87° 69° (ENE) 20:48:34 437.485
COMPASS 1 30 Jul 20:44:36 20:48:45 70° 74° (ENE) 20:52:55 437.405
Cosmos 2491 30 Jul 20:48:32 20:55:40 30° 81° (E) 21:02:49 435.465 / 435.565
BEESAT 3 30 Jul 20:50:14 20:51:55 12° 331° (NNW) 20:53:37 437.485
HO-68 30 Jul 20:51:54 20:58:59 60° 258° (WSW) 21:06:07 435.675
AUBIESAT-1 30 Jul 21:00:18 21:02:50 16° 53° (NE) 21:05:30 437.475
DELFI C3 30 Jul 21:00:45 21:03:10 16° 63° (ENE) 21:05:36 145.870
PRISM 30 Jul 21:01:18 21:03:40 15° 91° (E) 21:06:02 437.425
O/OREOS (USA 219) 30 Jul 21:01:30 21:05:59 83° 296° (WNW) 21:10:29 437.305
BEESAT 2 30 Jul 21:03:29 21:05:44 14° 329° (NNW) 21:07:59 435.950
AAUSAT CUBESAT 2 30 Jul 21:09:00 21:13:09 81° 257° (WSW) 21:17:19 437.432
AO-85 30 Jul 21:11:54 21:16:01 32° 41° (NE) 21:19:49 145.980
STRAND 1 30 Jul 21:14:51 21:19:55 62° 289° (WNW) 21:24:56 437.568
YUBILEINY 30 Jul 21:15:29 21:24:24 86° 83° (E) 21:33:13 435.215
FUNcube-1 30 Jul 21:18:23 21:22:47 50° 71° (ENE) 21:27:14 145.935
CINEMA 3 30 Jul 21:20:44 21:24:34 25° 268° (W) 21:28:33 145.822/145.860
ZACube-1 30 Jul 21:21:27 21:25:56 57° 72° (ENE) 21:30:28 437.345
UWE-3 30 Jul 21:29:41 21:34:19 82° 258° (WSW) 21:39:03 435.000/436.395/437.385
CANX-2 30 Jul 21:32:49 21:35:48 18° 269° (W) 21:38:47 2200.000
CUTE 1.7 + AOD 2 30 Jul 21:45:56 21:48:31 16° 270° (W) 21:51:06 437.475
Oscar 11 30 Jul 21:55:36 21:59:55 64° 258° (WSW) 22:04:15 145.826/435.025
AIST 2 30 Jul 21:57:00 22:00:56 43° 313° (NW) 22:04:55 435.215
CUBEBUG 2 30 Jul 22:00:59 22:05:04 30° 266° (W) 22:09:15 437.445
HUMSAT D 30 Jul 22:02:01 22:05:56 35° 69° (ENE) 22:09:52 437.325/437.525
M-CUBED/EXP-1 PRIME 30 Jul 22:10:09 22:14:05 87° 65° (ENE) 22:18:24 437.505
ESTCUBE 1 30 Jul 22:10:34 22:10:57 10° 55° (NE) 22:11:20 437.505/2401.250
PCSat 30 Jul 22:11:46 22:14:42 14° 333° (NNW) 22:17:38 145.827
ISS 30 Jul 22:13:43 22:16:57 60° 339° (NNW) 22:20:11 145.825
ANTELSAT 30 Jul 22:22:06 22:23:39 11° 86° (E) 22:25:11 437.575/2403.000
COMPASS 1 30 Jul 22:23:08 22:24:47 12° 272° (W) 22:26:27 437.405
Cosmos 2504 30 Jul 22:25:28 22:33:41 84° 81° (E) 22:41:14 435.465 / 435.565
AUBIESAT-1 30 Jul 22:32:48 22:36:45 66° 253° (WSW) 22:41:02 437.475
DELFI C3 30 Jul 22:33:46 22:37:38 52° 260° (W) 22:41:32 145.870
PRISM 30 Jul 22:35:18 22:39:19 55° 288° (WNW) 22:43:20 437.425
Cosmos 2491 30 Jul 22:43:09 22:51:48 68° 282° (WNW) 23:00:32 435.465 / 435.565
O/OREOS (USA 219) 30 Jul 22:43:57 22:46:09 13° 316° (NW) 22:48:21 437.305
HO-68 30 Jul 22:47:01 22:48:13 10° 278° (W) 22:49:25 435.675
AO-85 30 Jul 22:52:27 22:56:32 37° 243° (WSW) 23:00:18 145.980
AISAT 30 Jul 22:52:56 22:55:40 16° 60° (ENE) 22:58:26 437.250
50 SAT 30 Jul 22:53:22 22:54:52 12° 61° (ENE) 22:56:22 437.505
FUNcube-1 30 Jul 22:55:59 22:59:18 20° 269° (W) 23:02:39 145.935
STRAND 1 30 Jul 22:57:14 22:58:04 10° 308° (NW) 22:58:54 437.568
ZACube-1 30 Jul 22:59:33 23:02:35 17° 270° (W) 23:05:39 437.345
TIGRISAT 30 Jul 23:00:44 23:04:39 27° 94° (E) 23:08:27 435.000
SPROUT 30 Jul 23:11:28 23:12:51 11° 58° (ENE) 23:14:16 437.525
YUBILEINY 30 Jul 23:13:42 23:20:03 23° 283° (WNW) 23:26:22 435.215
UNISAT 6 30 Jul 23:18:10 23:22:34 41° 98° (E) 23:26:50 437.425
CUBEBUG 1 30 Jul 23:32:53 23:36:53 39° 69° (ENE) 23:40:57 437.445
HUMSAT D 30 Jul 23:38:05 23:41:38 25° 266° (W) 23:45:11 437.325/437.525
AIST 2 30 Jul 23:39:14 23:40:30 11° 335° (NNW) 23:41:46 435.215
NANOSAT C BR1 30 Jul 23:39:21 23:40:00 10° 87° (E) 23:40:38 145.865
DUCHIFAT 1 30 Jul 23:41:49 23:42:15 10° 87° (E) 23:42:42 145.980
VELOX 1 30 Jul 23:42:12 23:46:22 43° 70° (ENE) 23:50:33 145.980
ESTCUBE 1 30 Jul 23:42:28 23:46:57 73° 74° (ENE) 23:51:27 437.505/2401.250
ISS 30 Jul 23:50:45 23:53:45 33° 359° (N) 23:56:46 145.825
ANTELSAT 30 Jul 23:56:22 00:01:02 84° 284° (WNW) 00:05:32 437.575/2403.000
QB50P1 31 Jul 00:02:03 00:05:12 20° 92° (E) 00:08:19 145.935-145.965
POPSAT HIP 1 31 Jul 00:08:43 00:12:08 22° 93° (E) 00:15:30 437.405
DX 1 31 Jul 00:12:37 00:16:54 67° 73° (ENE) 00:21:14 434.975-435.025
UKube-1 31 Jul 00:18:33 00:22:48 61° 72° (ENE) 00:27:04 .
Cosmos 2504 31 Jul 00:20:20 00:25:53 21° 283° (WNW) 00:31:13 435.465 / 435.565
AIST 1 31 Jul 00:22:08 00:26:25 55° 77° (ENE) 00:30:43
50 SAT 31 Jul 00:24:26 00:28:02 60° 259° (WSW) 00:31:40 437.505
AISAT 31 Jul 00:27:20 00:31:41 63° 258° (WSW) 00:36:05 437.250
QB50P2 31 Jul 00:30:17 00:34:20 39° 98° (E) 00:38:21 145.880/145.840
POLYITAN 1 31 Jul 00:32:54 00:36:59 40° 98° (E) 00:41:00 437.675
TIGRISAT 31 Jul 00:37:09 00:41:24 37° 292° (WNW) 00:45:34 435.000
SPROUT 31 Jul 00:43:49 00:48:07 89° 76° (ENE) 00:52:27 437.525
Cosmos 2491 31 Jul 00:45:26 00:50:37 17° 307° (NW) 00:55:52 435.465 / 435.565
UNISAT 6 31 Jul 00:55:18 00:59:03 25° 296° (WNW) 01:02:44 437.425
CUBEBUG 1 31 Jul 01:09:57 01:13:20 22° 267° (W) 01:16:46 437.445
BUGSAT 1 31 Jul 01:11:47 01:15:51 41° 98° (E) 01:19:53 437.445
NANOSAT C BR1 31 Jul 01:12:01 01:16:20 84° 288° (WNW) 01:20:36 145.865
Cosmos 2499 31 Jul 01:13:36 01:18:26 17° 54° (NE) 01:23:04 435.465 / 435.565
DUCHIFAT 1 31 Jul 01:14:16 01:18:33 85° 285° (WNW) 01:22:49 145.980
VELOX 1 31 Jul 01:19:43 01:23:02 21° 267° (W) 01:26:23 145.980
ESTCUBE 1 31 Jul 01:22:13 01:24:17 13° 272° (W) 01:26:21 437.505/2401.250
GONETS M04 31 Jul 01:24:13 01:31:46 30° 64° (ENE) 01:39:18
TISAT 1 31 Jul 01:24:16 01:28:25 61° 73° (ENE) 01:32:37 437.305
ISS 31 Jul 01:27:22 01:30:36 54° 20° (NNE) 01:33:48 145.825
ANTELSAT 31 Jul 01:35:12 01:36:57 12° 304° (WNW) 01:38:42 437.575/2403.000
JAS-2 31 Jul 01:35:45 01:41:00 54° 101° (E) 01:46:44 435.910
QB50P1 31 Jul 01:37:06 01:41:11 44° 290° (WNW) 01:45:15 145.935-145.965
PCSat 31 Jul 01:43:51 01:46:46 14° 27° (NNE) 01:49:40 145.827
POPSAT HIP 1 31 Jul 01:44:02 01:48:02 39° 291° (WNW) 01:52:01 437.405
SWISSCUBE 31 Jul 01:46:25 01:50:26 27° 64° (ENE) 01:54:27 437.505
BEESAT 3 31 Jul 01:46:44 01:50:15 29° 42° (NE) 01:53:44 437.485
DX 1 31 Jul 01:51:23 01:53:33 14° 270° (W) 01:55:44 434.975-435.025
